#timestamp,LO_Frequency,Hit,StdDev 
1516687215.3,286046998.8,N
1516687235.1,286046998.7,N
1516687255.8,286046998.5,N
1516687275.7,286046996.7,Y
1516687295.5,286046998.5,P
1516687315.4,286046996.9,P
1516687335.2,286046998.4,N
1516687355.0,286047000.5,N
1516687355.9,286047000.5,N
1516687375.8,286047000.0,N
1516687395.6,286047000.0,N
1516687415.5,286047001.6,N
1516687435.3,286047001.4,N
1516687455.1,286047003.9,N
1516687475.9,286047003.5,N
1516687495.7,286047005.5,N
1516687515.5,286047003.3,N
1516687535.4,286047005.7,N
1516687555.2,286047005.9,N
1516687575.1,286047003.7,N
1516687576.0,286047003.7,N
1516687595.8,286047003.4,N
1516687615.6,286047005.0,N
1516687635.5,286047002.9,N
1516687655.3,286047005.4,N
1516687675.1,286047005.5,N
1516687695.9,286047004.6,N
1516687715.7,286047004.9,N
1516687735.6,286047006.7,N
1516687755.4,286047006.4,N
1516687775.2,286047008.7,Y
1516687795.1,286047005.2,P
1516687796.0,286047005.2,P
1516687815.8,286047005.5,P
1516687835.7,286047003.3,Y
1516687855.5,286047000.9,P
1516687875.3,286047001.0,N
1516687895.2,286047000.9,N
1516687915.9,286047000.6,N
1516687935.7,286047000.6,N
1516687955.6,286046998.9,N
1516687975.4,286046998.5,N
1516687995.3,286046996.7,N
1516688015.1,286046998.5,N
1516688016.0,286046998.5,N
1516688035.8,286046998.6,N
1516688055.7,286046998.8,N
1516688075.5,286046998.8,N
1516688095.3,286046999.3,N
1516688115.2,286046999.6,N
1516688135.0,286046998.4,N
1516688135.9,286046998.4,N
1516688155.8,286046996.9,N
1516688175.6,286046995.9,N
1516688195.4,286046995.2,N
1516688215.3,286046995.6,N
1516688235.1,286046995.1,N
1516688255.8,286046996.1,N
1516688275.7,286046997.4,N
1516688295.5,286046997.8,N
1516688315.4,286046995.8,N
1516688335.2,286046994.9,N
1516688355.0,286046995.5,N
1516688355.9,286046995.5,N
1516688375.8,286046993.8,N
1516688395.6,286046993.2,Y
1516688415.5,286046992.1,P
1516688435.3,286046994.1,N
1516688455.1,286046994.1,N
1516688475.9,286046993.4,Y
1516688495.7,286046998.3,P
1516688515.5,286046998.7,N
1516688535.4,286046995.0,N
1516688555.2,286046994.9,N
1516688575.1,286046997.6,N
1516688576.0,286046997.6,N
1516688595.8,286046994.9,Y
1516688615.6,286046998.1,P
1516688635.5,286046999.6,N
1516688655.3,286046997.2,N
1516688675.2,286046996.6,Y
1516688695.9,286046998.3,P
1516688715.7,286047000.5,N
1516688735.6,286047000.4,N
1516688755.4,286047000.5,N
1516688775.2,286047000.6,N
1516688795.1,286047000.6,N
1516688796.0,286047000.6,N
1516688815.8,286047002.5,N
1516688835.7,286046999.9,N
1516688855.5,286047000.2,N
1516688875.3,286047002.7,N
1516688895.2,286047002.6,N
1516688915.0,286047001.5,N
1516688915.9,286047001.5,N
1516688935.7,286047001.8,N
1516688955.6,286047005.0,Y
1516688975.4,286047003.0,P
1516688995.3,286047006.5,P
1516689015.1,286047006.8,N
1516689035.8,286047009.0,Y
1516689055.7,286047006.0,P
1516689075.5,286047003.0,P
1516689095.4,286047005.6,P
1516689115.2,286047003.5,N
1516689135.0,286047003.8,Y
1516689166.0,286046998.4,E
1516689175.9,286047000.5,N
1516689195.7,286047002.1,P
1516689215.6,286047002.8,P
1516689235.4,286047002.0,N
1516689255.2,286047003.5,Y
1516689275.1,286047001.8,P
1516689276.0,286047001.8,P
1516689295.8,286047002.0,P
1516689315.7,286047000.3,Y
1516689335.5,286047000.8,P
1516689355.3,286047000.0,N
1516689375.2,286047001.2,N
1516689395.0,286047000.2,N
1516689395.9,286047000.2,N
1516689415.7,286047000.1,N
1516689435.6,286046999.7,N
1516689455.4,286047000.2,N
1516689475.3,286047000.4,N
1516689495.1,286046999.7,N
1516689496.0,286046999.7,N
1516689515.8,286047000.0,N
1516689535.7,286047002.5,Y
1516689555.5,286047002.0,P
1516689575.4,286047002.3,N
1516689595.2,286047002.2,N
1516689615.0,286047002.1,N
1516689615.9,286047002.1,N
1516689635.8,286046999.9,N
1516689655.6,286046999.8,N
1516689675.4,286047000.7,N
1516689695.3,286046996.9,Y
1516689715.1,286046995.5,P
1516689735.9,286046995.9,N
1516689755.7,286046993.4,N
1516689775.5,286046996.3,N
1516689795.4,286046996.0,N
1516689815.2,286046994.0,N
1516689835.0,286046996.4,N
1516689836.0,286046996.4,N
1516689855.8,286046995.1,N
1516689875.6,286046998.0,N
1516689895.5,286046995.6,N
1516689915.3,286046996.2,N
1516689935.1,286046993.9,Y
1516689955.9,286046999.1,P
1516689975.7,286047000.8,N
1516689995.6,286047000.5,N
1516690015.4,286047002.0,N
1516690035.2,286047000.3,N
1516690055.1,286046999.9,N
1516690056.0,286046999.9,N
1516690075.8,286046998.6,N
1516690095.6,286046998.7,N
1516690115.5,286047000.8,N
1516690135.3,286047001.1,N
1516690155.1,286047001.0,N
1516690175.9,286047000.5,N
1516690195.7,286047002.2,N
1516690215.6,286047002.1,N
1516690235.4,286047001.7,N
1516690255.2,286047001.3,N
1516690275.1,286047003.6,N
1516690276.0,286047003.6,N
1516690295.8,286047003.2,N
1516690315.6,286047001.6,N
1516690335.5,286047001.8,N
1516690355.3,286046998.4,N
1516690375.2,286046998.3,N
1516690395.9,286047002.4,N
1516690415.7,286047000.5,N
1516690435.6,286047002.7,N
1516690455.4,286047001.0,N
1516690475.2,286047000.9,N
1516690495.1,286047000.0,N
1516690496.0,286047000.0,N
1516690515.8,286047000.9,N
1516690535.7,286047001.2,N
1516690555.5,286046996.6,N
1516690575.3,286046996.6,N
1516690595.2,286046997.0,N
1516690615.0,286046995.4,N
1516690615.9,286046995.4,N
1516690635.7,286046995.1,N
1516690655.6,286046995.8,N
1516690675.4,286046993.6,N
1516690695.3,286046996.4,N
1516690715.1,286046995.4,N
1516690716.0,286046995.4,N
1516690735.8,286046999.6,N
1516690755.7,286046996.7,N
1516690775.5,286046997.5,N
1516690795.3,286046999.5,N
